GSAT0102 (GALILEO-FM2) (37847 NORAD) Tracking and Keplerian Element Data

This shows tracking and keplerian element data for the satellite.

Feedback or suggestion? Click here.




ElementValue
Catalog37847
NameGSAT0102 (GALILEO-FM2)
Epoch Orbit4187
Epoch Day194.14597771
Epoch Year2018
RAAN60.7935
Inclination56.1265
Eccentricity0.0004036
Argument of Perigee335.4017
Mean Anonmoly234.1256
Mean Motion1.70475716
Decay Rate-5.2E-07
L11 37847U 11060B 18194.14597771 -.00000052 00000-0 00000+0 0 9998
L22 37847 56.1265 60.7935 0004036 335.4017 234.1256 1.70475716 41873

Live tracking and technical data element details for GSAT0102 (GALILEO-FM2) (NORAD 37847). GSAT0102 (GALILEO-FM2) can be tracked NOW for your location showing map with azimuth and elevation plus other details from your city location.

Track the satellite on the map from your city or location and see movement details for azimuth, elevation, latitude, longitude, range, height, and movement on the map or in text.







IsCatalogInMostPopularTable: catalog: 37847, numindb: 36
Update: records affected: 1



GetName: 37847 GSAT0102 (GALILEO-FM2)

Hit Count: updated at: Sun, 15 Jul 2018 23:05:07 GMT